Location: Deneb Observatory
(47.2267°N, 100.4953°W)
Time: 01:54:53
(UTC-05:00)

Iridium 66 - Visible Passes

Search period start: 24 June 2017 00:00
Search period end: 04 July 2017 00:00
Orbit: 776 x 779 km, 86.4° (Epoch: 23 June)

Date Brightness Start Highest point End Pass type
(mag) Time Alt. Az. Time Alt. Az. Time Alt. Az.
24 Jun 9.0 00:24:48 10° WNW 00:25:18 10° WNW 00:25:48 10° WNW visible
24 Jun 8.6 23:47:49 10° WSW 23:51:17 18° WNW 23:54:47 10° NNW visible
25 Jun 7.9 23:12:53 10° SW 23:17:25 30° WNW 23:21:59 10° NNW visible
26 Jun 7.0 22:38:38 10° SSW 22:43:42 50° W 22:48:48 10° N visible
27 Jun 8.8 23:49:21 10° W 23:51:39 13° WNW 23:53:58 10° NW visible
28 Jun 8.4 23:13:43 10° WSW 23:17:42 22° WNW 23:21:42 10° NNW visible
29 Jun 7.6 22:39:06 10° SW 22:43:53 36° WNW 22:48:43 10° NNW visible
01 Jul 8.7 23:14:53 10° WSW 23:18:01 16° WNW 23:21:11 10° NNW visible
02 Jul 8.2 22:39:46 10° SW 22:44:07 27° WNW 22:48:31 10° NNW visible
